Fort Lauderdale, FL

4:47 AM EDT on July 28, 2017 (GMT -0400)
Fort Lauderdale Executive

Weather History for KFXE - January, 2013

Change the Weather History Date:

Thursday, January 31, 2013

  Actual Average Record
Temperature  
Mean Temperature 66 °F -  
Max Temperature 72 °F 79 °F 87 °F (1991)
Min Temperature 60 °F 56 °F 32 °F (1966)
Cooling Degree Days 2    
Growing Degree Days 16 (Base 50)    
Moisture  
Dew Point 58 °F    
Average Humidity 75    
Maximum Humidity 97    
Minimum Humidity 44    
Precipitation  
Precipitation 0.01 in - - ()
Sea Level Pressure  
Sea Level Pressure 30.08 in    
Wind  
Wind Speed 6 mph (WNW)    
Max Wind Speed 16 mph    
Max Gust Speed 24 mph    
Visibility 10 miles    
Events Rain    
Averages and records for this station are not official NWS values.
T = Trace of Precipitation, MM = Missing Value Source: NWS Daily Summary

Daily Weather History Graph

Daily Weather History Graph

Search for Another Location

Airport or City:

Trip Planner

Search our weather history database for the weather conditions in past years. The results will help you decide how hot, cold, wet, or windy it might be!

Date:

Astronomy

Jan. 31, 2013 Rise Set
Actual Time 7:05 AM EST 6:03 PM EST
Civil Twilight 6:41 AM EST 6:27 PM EST
Nautical Twilight 6:13 AM EST 6:55 PM EST
Astronomical Twilight 5:46 AM EST 7:22 PM EST
Moon 10:28 PM EST (1/31) 9:36 AM EST (1/31)
Length of Visible Light 11h 46m
Length of Day
10h 57m
Waning Gibbous, 80% of the Moon is Illuminated
Jan 31
Waning Gibbous
Feb 3
Last Quarter
Feb 10
New
Feb 17
First Quarter
Feb 25
Full

Hourly Weather History & Observations

Time (EST) Temp. Dew Point Humidity Pressure Visibility Wind Dir Wind Speed Gust Speed Precip Events Conditions
12:53 AM 71.1 °F 66.9 °F 87% 30.01 in 10.0 mi South 4.6 mph - N/A   Clear
1:53 AM 70.0 °F 66.9 °F 90% 30.00 in 10.0 mi South 3.5 mph - N/A   Clear
2:53 AM 71.1 °F 68.0 °F 90% 29.99 in 10.0 mi South 3.5 mph - N/A   Clear
3:53 AM 71.1 °F 69.1 °F 93% 29.98 in 10.0 mi SSW 3.5 mph - N/A   Clear
4:53 AM 70.0 °F 69.1 °F 97% 29.97 in 10.0 mi South 5.8 mph - N/A   Clear
5:53 AM 70.0 °F 69.1 °F 97% 29.99 in 10.0 mi SSW 4.6 mph - N/A   Clear
6:53 AM 70.0 °F 69.1 °F 97% 30.00 in 10.0 mi South 4.6 mph - N/A   Clear
7:53 AM 72.0 °F 70.0 °F 93% 30.02 in 10.0 mi South 4.6 mph - N/A   Partly Cloudy
8:27 AM 71.6 °F 68.0 °F 88% 30.06 in 10.0 mi WNW 16.1 mph 24.2 mph N/A   Mostly Cloudy
8:43 AM 64.4 °F 60.8 °F 88% 30.07 in 10.0 mi NW 10.4 mph 21.9 mph 0.00 in Rain Light Rain
8:53 AM 64.0 °F 61.0 °F 90% 30.09 in 10.0 mi WNW 8.1 mph 16.1 mph 0.01 in Rain Light Rain
9:21 AM 64.4 °F 60.8 °F 88% 30.10 in 10.0 mi NW 9.2 mph - 0.00 in   Overcast
9:53 AM 64.0 °F 61.0 °F 90% 30.11 in 10.0 mi WNW 8.1 mph 16.1 mph 0.00 in   Overcast
10:26 AM 64.4 °F 59.0 °F 83% 30.12 in 10.0 mi NW 10.4 mph 19.6 mph N/A   Mostly Cloudy
10:53 AM 64.0 °F 57.0 °F 78% 30.13 in 10.0 mi NW 10.4 mph 20.7 mph N/A   Mostly Cloudy
11:53 AM 69.1 °F 59.0 °F 70% 30.11 in 10.0 mi Variable 5.8 mph - N/A   Mostly Cloudy
12:53 PM 66.0 °F 57.0 °F 73% 30.10 in 10.0 mi WNW 6.9 mph - N/A   Overcast
1:53 PM 66.0 °F 53.1 °F 63% 30.08 in 10.0 mi NNW 5.8 mph - N/A   Overcast
2:53 PM 66.0 °F 52.0 °F 60% 30.07 in 10.0 mi NNW 8.1 mph - N/A   Overcast
3:53 PM 64.9 °F 53.1 °F 65% 30.09 in 10.0 mi NNW 6.9 mph - N/A   Overcast
4:53 PM 66.0 °F 50.0 °F 56% 30.11 in 10.0 mi North 5.8 mph - N/A   Overcast
5:53 PM 66.0 °F 52.0 °F 60% 30.12 in 10.0 mi North 4.6 mph - N/A   Mostly Cloudy
6:53 PM 64.9 °F 51.1 °F 61% 30.13 in 10.0 mi NNE 4.6 mph - N/A   Mostly Cloudy
7:53 PM 64.9 °F 50.0 °F 58% 30.15 in 10.0 mi Calm Calm - N/A   Scattered Clouds
8:53 PM 64.0 °F 51.1 °F 63% 30.16 in 10.0 mi Calm Calm - N/A   Clear
9:53 PM 64.0 °F 43.0 °F 46% 30.18 in 10.0 mi NNW 8.1 mph - N/A   Clear
10:53 PM 61.0 °F 39.0 °F 44% 30.19 in 10.0 mi NNW 6.9 mph - N/A   Clear
11:53 PM 60.1 °F 37.9 °F 44% 30.18 in 10.0 mi NNW 5.8 mph - N/A   Clear